CAPE
2665 3160 3298 3556 3364 3005 2795 3107 2700 2900 2325 2392 2716 3269 3207 2946 3047 2693 2754 2675 2357 1898 2121 1696 1931 1908 1761 1727 1604 1273 1420 1544 1362 1373 1712 2794 2892 2765 2778 2747 2518 2400 2544 2283 2538 2482 2564 2570 2490 2105 1976 1720 1838 1642 1432 1834 1858 1540 1357 909 1229 1258 1414 1477 1598 1660 1618 1469 1379 1315 1286 1353 1436 1401 1356 1334 1299 1266 1301 1313 1289 1230 1177 1324 1313
2873 3666 3137 3268 3518 3256 2938 2945 3430 3297 3022 2750 3270 3450 3305 3289 3081 3128 2814 2560 2413 2332 2526 1892 1319 694 1598 1142 841 1039 1117 1522 1246 1207 1723 2306 2837 2852 2925 2633 2572 2583 2336 2474 2297 2280 2476 2608 2520 2401 1851 2029 1761 1503 1338 1413 1782 1798 1564 1408 1363 1313 1280 1433 1508 1652 1717 1622 1556 1460 1425 1421 1473 1532 1449 1430 1452 1434 1411 1322 1312 1333 1292 1300 1385
3083 3645 3707 3736 3744 3243 3495 3129 2927 2659 3085 2843 3085 2993 2908 3013 2898 2764 2837 2594 2420 2671 2356 1823 1408 940 860 748 614 768 519 693 391 773 811 1336 2476 3091 2797 2974 2593 2797 2391 2483 2229 2523 2375 2437 2356 2341 2407 2299 1802 1509 1473 1237 1377 1525 1830 1672 1467 1386 1417 1310 1426 1590 1752 1725 1690 1611 1566 1560 1552 1607 1619 1546 1542 1580 1577 1575 1496 1422 1413 1343 1304
3454 3482 3159 3397 3663 3427 3380 3130 2849 3010 2795 2662 3327 3180 3001 2969 2945 2792 2809 2623 2354 2553 2073 1448 1467 565 534 173 161 335 428 456 131 170 54 627 1479 2908 2939 2521 2440 2431 2742 2410 2461 2405 2456 2397 2335 1983 2384 2152 2016 1782 1711 1372 1508 1941 1777 1824 1738 1561 1519 1396 1466 1557 1780 1831 1775 1687 1676 1678 1703 1659 1696 1679 1663 1731 1772 1752 1716 1613 1570 1532 1544
3933 3510 3356 3205 3151 3328 3292 2828 2849 2946 2652 2965 3045 3409 3227 2843 3315 2960 2735 2482 2559 1702 1581 257 30 310 162 32 590 365 585 718 592 569 443 257 846 1705 2653 2745 2444 2691 2599 2616 2639 2528 2667 2420 2368 2243 2210 2149 2086 1836 1412 1617 1525 1929 1999 1915 1769 1641 1649 1580 1632 1663 1686 1759 1729 1720 1730 1751 1745 1697 1793 1777 1775 1801 1846 1927 1926 1911 1856 1830 1800
3828 3751 3614 3069 3200 3522 3265 2948 3295 3206 3290 3590 3354 3237 2762 2629 2367 2272 2770 2629 1778 839 38 400 669 275 345 588 544 1261 941 782 660 684 719 588 1060 944 1038 2590 2575 2253 2349 2654 2490 2725 2691 2535 2394 2250 2088 2176 2232 2037 1699 1598 1719 1964 1958 2104 2001 2122 2102 2120 2051 1904 1900 1810 1730 1719 1796 1908 1880 1832 1968 1954 1908 1810 1747 1828 1923 1913 1838 1939 2006
4091 4139 3979 3263 2801 3127 3218 3392 3514 3224 3053 3388 3187 2726 2376 2626 2705 2200 1728 1821 323 45 208 523 491 1053 1897 1432 1064 839 1232 857 988 773 859 1088 1162 853 1500 1483 1331 2674 2110 2274 2513 2631 2669 2700 2593 2442 2203 2022 2045 2037 2033 1664 1853 1516 1475 1833 2008 2080 2006 1976 1857 1764 1830 1949 1850 1807 1801 1821 1879 1957 2033 2018 2037 2026 1976 1954 1944 1956 1932 1874 1788
3500 4167 3769 3404 3013 3259 3654 3077 3083 3704 3592 2774 2700 2796 2080 2585 2391 1482 1263 406 1053 745 1050 1019 611 817 1028 1215 1612 1536 1326 1260 987 601 558 1066 1279 998 1608 1529 1204 2073 2604 2014 1926 2279 2830 2850 2668 2298 2275 2149 2011 2156 2193 1810 1803 1572 1615 1734 1912 2029 1837 1697 1637 1652 1692 1766 1825 1825 1771 1766 1786 1890 1994 2106 2120 2116 2103 2138 2133 2096 2055 2023 2013
2878 3787 4075 3532 3357 3306 2765 2676 2744 2608 3167 2110 2116 2534 2780 2050 2460 935 789 1620 1048 519 869 1055 639 641 756 921 834 1162 1009 1349 1008 727 1014 801 855 594 1408 1507 1936 1110 485 1073 1983 2337 2883 2959 2801 2476 2290 2116 1951 1980 1920 2001 1716 1568 1654 1510 1610 1810 1846 1733 1472 1381 1436 1501 1564 1728 1851 1819 1876 1895 1991 2036 2023 2108 2144 2091 2208 2310 2314 2276 2222
3356 3580 4096 3763 3439 3518 2754 3176 2590 2620 2618 1853 2160 2598 2179 1972 1419 2913 1598 1212 1489 800 761 512 363 362 370 101 1123 1008 937 1436 898 1573 1507 740 1200 922 1459 1700 1939 1325 854 974 2198 2521 2251 2971 2939 2678 2377 2244 2126 2107 2024 1932 1632 1658 1641 1713 1687 1697 1713 1844 1729 1439 1502 1751 1985 1801 1741 1946 1999 2054 2108 2128 2047 1961 1944 2068 2122 2108 2198 2274 2307
4017 4442 4201 3864 3504 3524 3219 2907 2767 2454 1743 1943 2638 2408 1636 1136 937 1508 1900 1355 1016 916 894 933 611 300 13 113 810 1124 1283 1067 1379 996 886 354 515 786 860 1536 1214 1665 1808 1283 1370 2135 2266 2260 2590 2671 2562 2204 2234 2155 2051 1960 1690 1596 1746 1782 1667 1680 1720 1753 1725 1704 1621 1668 1784 1922 1922 1786 1836 1926 1952 2034 2088 2197 2190 2067 1973 2019 2100 2125 2150
4032 4081 4186 4053 4017 3345 3005 2545 2354 1975 2568 2150 1795 1773 2106 1730 1597 1452 1090 1059 1233 727 442 180 102 194 256 333 544 943 908 548 428 635 793 617 328 630 396 676 1241 1138 1247 2312 1660 1625 2046 2664 2209 1612 1868 2319 2228 2173 2088 2041 1723 1592 1454 1536 1523 1664 1753 1724 1757 1793 1771 1759 1630 1718 1783 1719 1546 1705 1795 1874 2009 2111 2189 2189 2119 2037 2016 2064 2082
4073 3845 4065 4129 3754 2922 2562 2582 2554 2464 2772 1824 1749 1568 1465 1647 2067 1715 1200 911 735 456 807 31 431 421 1161 387 735 437 630 94 468 474 147 152 310 667 474 432 466 656 1013 870 1012 1101 1366 1712 1865 1991 1708 2115 2258 2060 2011 1952 1831 1601 1582 1693 1721 1623 1750 1890 1875 1829 1670 1690 1670 1663 1721 1712 1762 1739 1776 1905 1975 2027 2088 2159 2172 2131 2138 2101 2083
4201 3834 3492 4167 3143 3324 3179 2844 2715 2287 1943 2026 961 658 693 470 1876 1564 780 706 268 87 209 116 271 991 41 259 908 1017 1023 558 224 322 5 25 141 203 50 14 18 72 352 993 578 973 1530 1383 1479 1998 2318 2127 2116 1913 1928 1525 1610 1722 1832 1801 1780 1815 1805 1833 1916 1910 1884 1791 1726 1756 1793 1822 1771 1824 1879 1833 1787 1865 1918 2086 2177 2132 2040 2017 2132
3832 4243 3531 2820 3443 2920 2360 2244 1069 2565 1289 1071 1853 911 670 172 1246 613 924 1080 746 555 404 161 13 239 565 554 885 1206 1294 1465 739 215 7 9 20 14 12 0 12 195 470 249 450 483 592 836 1580 1816 1813 2036 1888 1952 1935 1789 1854 1714 1708 1564 1358 1459 1686 1717 1854 1761 1692 1654 1681 1646 1501 1637 1704 1786 1876 1821 1860 1889 1832 1778 1782 1786 1783 1870 1923
3885 3771 3372 3459 2928 2569 2292 2279 1727 2142 2049 1995 1562 649 938 1615 762 1124 830 61 76 414 340 250 50 251 683 336 337 496 1240 1135 774 270 5 6 5 0 2 0 11 387 22 0 115 117 94 578 794 1184 1787 1992 1997 1907 1839 1858 1384 1108 1254 1001 1048 1129 1250 1272 1346 1647 1639 1513 1502 1595 1633 1634 1650 1647 1582 1774 1795 1894 1870 1806 1827 1698 1705 1748 1895
3075 3219 3068 3057 2593 2324 2385 2056 2434 1654 1570 1618 1000 162 1075 777 732 834 437 229 38 306 605 275 886 433 467 828 656 727 354 308 3 908 109 28 2 0 113 0 61 41 49 6 660 180 52 33 232 185 532 1763 1671 1740 1860 1639 1628 1410 863 422 206 340 551 819 955 914 979 1037 1053 1097 1189 1291 1404 1557 1709 1698 1795 1794 1798 1789 1812 1835 1853 1826 1635
3040 3257 2777 2688 2432 2338 2206 2065 2046 2072 1500 1418 1055 1117 348 769 456 472 143 113 153 359 188 384 841 619 322 614 299 413 648 729 365 937 927 579 135 73 6 0 59 60 349 16 639 418 3 45 7 15 30 44 389 663 1222 1559 1652 1258 598 86 6 0 5 26 143 338 474 633 744 856 898 941 974 990 1046 1137 1366 1702 1757 1692 1731 1805 1817 1774 1731
2670 2841 2448 2587 2402 2362 2232 2036 2072 1875 1480 1232 808 333 187 232 145 140 385 535 136 670 393 590 503 476 590 4 0 141 83 187 378 509 774 908 1044 16 56 24 23 0 2 32 0 0 1 66 5 18 35 70 100 181 7 0 17 47 18 0 0 0 0 0 12 24 48 26 36 72 55 210 302 545 684 750 842 940 1050 1395 1606 1736 1712 1674 1663
2566 2852 2717 2578 2570 2397 2376 2034 1830 1662 1725 601 461 214 1679 655 150 791 646 366 780 399 425 718 520 1019 740 627 340 390 80 98 219 296 416 283 902 269 95 24 0 0 0 0 0 0 0 0 5 115 2 0 248 332 43 41 46 5 0 0 0 0 0 0 0 0 0 0 0 0 0 0 5 21 81 139 217 527 779 847 915 1179 1563 1684 1685
2877 2625 2563 2425 2499 2400 2196 2118 1654 1473 876 905 250 758 512 726 657 308 615 672 841 696 361 715 386 452 497 488 405 843 558 248 18 238 386 99 241 86 311 8 17 5 0 0 0 0 14 36 0 0 124 0 0 0 70 342 381 21 0 0 0 0 0 0 0 0 0 0 0 0 0 0 0 0 0 6 14 58 116 186 439 734 876 1190 1558
2886 2829 2634 2389 2242 2284 2124 1835 1704 697 405 456 285 818 710 709 636 660 580 812 585 799 1053 1412 750 624 385 655 907 390 433 236 237 78 104 8 22 29 26 89 370 94 285 2 0 6 1 14 7 0 0 497 166 0 1 75 99 0 0 0 0 0 0 0 0 0 0 0 0 0 0 0 0 0 0 0 0 0 30 54 85 139 235 391 680
2382 2898 2490 2222 2261 2141 1692 1739 864 1202 212 988 709 466 437 582 669 822 836 803 726 889 438 638 822 719 518 470 634 444 1371 233 321 298 98 114 150 42 14 11 1 35 560 258 191 19 0 0 2 0 4 0 21 71 18 155 2 4 0 0 0 0 0 0 0 0 0 0 0 0 0 0 0 0 0 0 0 0 0 1 4 16 51 72 86
2875 2609 2239 1601 2433 2224 1817 1562 1245 838 311 673 615 530 131 546 881 1057 980 542 899 1338 740 784 626 924 199 324 426 202 403 0 37 1414 48 239 5 22 54 49 251 89 288 492 180 229 221 6 0 22 201 0 93 446 471 0 0 9 22 43 22 12 1 0 0 0 0 0 0 0 0 0 0 0 0 0 0 0 0 0 0 0 0 1 14
2919 2666 2231 2034 2341 2452 2350 1776 1078 1005 578 608 1428 364 1372 666 1015 981 733 831 826 688 577 326 188 414 483 44 48 67 298 317 32 4 56 1627 252 124 39 45 96 119 585 214 243 115 126 234 105 40 582 117 0 97 72 278 57 511 26 164 0 179 159 197 26 0 1 4 0 0 0 0 0 0 0 0 0 0 0 0 0 0 0 0 0
2534 2612 2060 2011 2178 2112 2156 1441 1193 1090 1042 958 998 708 824 900 984 819 776 884 810 669 700 487 694 216 122 41 5 86 29 12 67 87 40 35 450 226 468 302 137 124 163 294 1126 305 256 0 127 200 62 315 109 85 109 6 3 820 115 22 252 73 156 14 17 12 0 0 0 0 0 0 0 0 0 0 0 0 0 0 0 0 0 0 0
2748 2565 2663 2381 2354 2137 1412 1461 1182 1007 1235 1135 1046 1196 991 1075 1130 890 663 865 577 808 574 355 307 249 236 336 102 42 102 420 16 10 7 11 473 329 744 332 213 169 191 210 122 64 19 30 509 844 82 531 402 488 440 51 7 1086 608 15 0 108 19 10 0 0 0 0 0 10 20 6 1 0 0 0 0 0 0 0 0 0 0 0 0
3090 2424 2581 2155 2226 1579 1357 1284 1200 1000 1115 1283 1166 976 1179 864 1398 1036 1106 844 816 648 696 1039 432 482 296 739 1207 461 147 94 123 170 550 488 344 446 476 479 224 188 234 213 144 110 85 124 742 396 1236 1071 703 631 504 348 35 1173 855 46 59 19 0 0 7 13 5 0 0 0 0 53 0 0 0 0 0 0 0 0 0 0 0 0 0
2741 2414 1947 2009 2001 1500 1143 1082 1046 1025 884 1242 1131 1284 1211 1130 1037 1221 895 564 883 764 786 379 704 114 371 189 493 524 481 711 521 566 842 707 624 729 536 548 473 210 190 170 166 148 208 19 10 1254 216 352 590 322 408 346 159 65 252 208 152 423 336 42 0 29 33 14 0 0 0 0 0 0 0 0 0 0 0 0 0 0 0 0 0
2384 1962 1908 1787 1972 1680 1317 1149 1131 964 879 820 1122 1133 1274 1046 1096 997 861 915 974 1133 852 854 529 713 512 720 878 726 809 692 534 330 721 804 1024 968 1031 856 734 542 396 270 288 264 274 269 31 720 412 575 428 906 578 579 253 323 279 257 220 197 168 81 70 61 48 24 3 0 0 0 0 0 0 0 0 0 0 0 0 0 0 0 0
2562 2350 2121 1707 1794 1406 1535 1288 1176 1081 1072 978 1153 1196 1242 1094 991 1081 927 915 1314 1242 1123 823 838 838 762 555 897 816 986 716 751 396 1108 1100 1096 1150 1006 1022 1033 659 618 575 369 443 315 278 385 215 396 918 152 165 391 586 618 386 315 306 278 228 190 168 165 159 80 11 0 0 0 0 0 0 0 0 0 0 0 0 0 0 0 0 0
2635 2592 2206 1746 1614 1347 1445 1045 948 1005 1091 1018 1216 1212 1278 1295 917 770 748 791 915 988 993 911 658 831 823 707 893 780 694 685 604 506 697 802 878 1059 1032 1144 1195 1048 1014 892 582 558 689 543 522 534 358 181 896 360 98 149 426 600 349 353 340 355 322 228 253 174 109 129 103 0 0 0 0 0 0 0 0 0 0 0 0 0 0 0 0
2526 2466 2282 1948 1585 1369 1133 1097 896 811 910 1000 1122 1107 1074 1256 1154 982 957 908 880 810 978 897 735 811 888 732 871 892 908 986 958 820 665 989 904 895 1048 1057 964 1009 966 989 926 876 936 997 992 775 712 629 309 520 709 710 514 595 506 444 450 302 272 281 338 357 247 162 131 144 109 0 0 0 0 0 0 0 7 16 0 0 0 0 0
2591 2360 2336 2135 1731 1596 1267 1198 1044 979 1055 1073 1205 1067 1079 1195 1181 1004 1148 1097 953 876 812 914 1068 801 887 974 815 722 836 755 796 821 818 668 618 504 762 780 758 971 1247 942 976 852 611 640 909 1043 911 820 654 645 444 588 546 637 641 494 570 512 405 324 271 303 274 147 19 7 0 0 0 0 0 0 0 0 0 0 0 0 0 0 0
2762 2461 2378 2052 1821 1637 1336 1196 1160 1134 1087 1174 1144 1086 1070 1195 1142 1000 1000 1014 830 842 840 762 762 799 861 868 753 777 816 923 1003 919 769 876 588 530 582 525 706 840 1017 929 689 545 529 572 690 660 655 832 721 714 730 733 736 826 778 660 443 389 397 365 332 252 122 29 0 0 0 0 0 0 0 0 0 0 0 0 0 0 0 0 0
2898 2700 2442 1990 1820 1691 1373 1204 1204 1118 1164 1128 1059 1138 1222 1183 1185 1156 1059 1042 927 882 894 775 722 769 815 809 661 562 733 940 1034 973 901 959 1036 1092 912 927 1040 1038 1070 1089 1163 1063 1059 887 750 637 682 716 862 856 769 681 486 491 631 605 680 628 561 482 417 440 293 71 10 0 0 0 0 0 0 0 0 0 0 0 0 0 0 0 0
3035 2772 2457 2036 1938 1769 1458 1193 1160 1152 1232 1112 925 908 1193 1233 1227 1144 996 914 951 985 850 745 834 759 790 766 817 793 894 938 993 974 905 945 976 973 1060 1139 1233 1212 949 923 1030 961 808 730 706 739 809 822 755 770 840 774 823 825 904 747 665 622 687 602 322 288 73 32 12 0 0 0 0 0 0 0 0 0 0 0 0 0 0 0 0
3242 2831 2517 2141 1926 1815 1492 1242 1126 1160 1290 1137 974 921 1032 1182 1259 1094 910 753 712 796 741 798 821 917 905 902 842 832 864 864 840 835 877 864 984 1050 954 1098 1179 1102 1027 989 1036 1063 1044 1020 924 637 500 534 708 796 686 696 663 659 647 757 828 739 614 607 346 226 164 103 105 499 327 53 0 0 0 0 0 0 0 0 0 0 0 0 0
3013 2677 2562 2304 1954 1834 1620 1295 1146 1171 1349 1276 1178 1096 1057 1148 1203 1065 866 750 667 729 696 747 736 789 848 831 899 997 981 903 796 829 1003 1006 829 731 1002 1126 1062 1068 1072 1012 1055 1078 976 907 948 987 894 837 855 722 894 923 872 698 594 743 563 334 491 568 502 474 303 228 241 154 102 60 54 22 4 0 0 0 0 0 0 0 0 0 0
2980 2781 2577 2450 2100 1877 1757 1330 1201 1258 1270 1042 1053 1036 1020 1137 1100 893 751 608 631 735 690 740 647 550 668 738 653 870 946 1047 977 914 806 914 1073 1084 1254 1148 1198 1246 1151 1097 972 878 809 695 598 424 341 313 411 521 551 586 721 930 1109 881 440 343 456 819 838 756 710 686 604 508 327 110 71 131 8 0 0 0 0 0 0 0 0 0 0
3254 3061 2830 2601 2247 2029 1833 1194 1215 1486 1256 816 974 1104 705 949 789 718 594 506 517 545 625 627 682 675 602 642 485 524 972 1114 943 911 832 833 999 1116 1248 1300 1314 1123 888 794 870 821 743 651 497 392 291 316 345 292 248 342 453 503 860 759 440 385 647 496 483 798 919 667 467 282 240 271 280 323 304 298 456 540 457 117 7 29 12 0 0
3586 3389 2884 2852 2217 2047 1596 1329 1480 1669 956 813 737 756 587 828 425 366 668 546 332 377 557 668 646 636 595 601 508 755 956 1577 1386 789 579 698 625 831 1269 1446 1518 1273 1111 854 656 527 455 411 331 214 70 16 39 121 214 216 282 422 567 735 615 576 434 378 440 488 640 689 529 356 370 498 357 253 333 320 340 425 260 256 256 253 267 248 105
3749 3656 3608 2946 2404 2229 2026 1851 1615 1368 1254 1270 1211 1018 705 652 646 723 493 391 362 587 364 749 697 719 742 871 818 924 1170 1247 1727 1430 1202 910 699 663 442 433 750 1006 756 641 494 428 442 351 288 202 86 55 96 218 310 227 213 396 417 432 461 434 382 260 149 240 735 714 706 472 295 402 354 242 222 203 162 100 94 137 178 182 82 41 30
4013 3797 3555 3293 2522 2274 2086 1978 1802 1672 1634 1659 1607 1484 905 533 537 574 445 388 443 464 428 659 1118 1276 903 826 814 740 884 1198 1225 1513 1415 721 380 327 329 426 505 538 616 558 464 413 367 242 158 128 104 149 277 325 338 220 456 348 447 398 383 420 352 233 184 165 484 567 419 216 106 154 113 7 0 19 45 74 110 78 44 59 47 25 11
4172 3870 3984 3215 2593 2300 2101 2027 1873 1752 1739 1749 1837 1556 864 672 589 445 453 543 451 1037 1395 1255 873 906 1157 914 781 888 942 733 999 2028 1906 1336 662 533 421 517 623 713 747 665 478 355 340 302 266 206 140 162 281 459 523 510 344 216 307 291 290 247 161 101 104 91 149 194 5 0 0 3 17 0 0 17 47 66 105 112 84 58 26 2 0
4022 3739 3516 3283 2637 2324 2085 1922 1821 1745 1737 1745 1702 1488 706 620 757 550 524 498 935 1005 667 393 354 386 983 1253 1277 775 857 993 1110 1646 1908 1783 1776 1582 1370 1151 936 762 608 573 484 164 66 265 312 291 364 363 319 431 545 360 271 243 148 64 50 12 2 0 2 0 1 21 10 0 0 6 8 4 12 37 67 84 110 173 173 290 25 0 0
3873 3742 3296 2853 2522 2370 2183 1971 1854 1754 1710 1756 1584 1443 975 979 690 553 454 519 512 531 491 419 335 314 577 1992 1799 760 755 752 1008 1562 1784 1602 1454 1377 1280 1023 862 730 586 322 532 645 148 50 105 190 279 450 643 635 366 65 18 27 24 16 2 0 0 0 0 0 0 16 41 37 3 0 26 56 105 181 269 217 33 1 0 0 0 0 0
3295 3689 2914 2636 2460 2324 2171 2174 2020 1882 1563 1398 1298 1314 1247 956 779 752 636 548 522 482 572 551 401 487 1467 1973 1555 718 471 1146 1145 1356 1831 1796 1494 1268 1158 932 768 639 454 360 96 91 477 666 485 402 410 469 181 170 24 0 1 17 20 4 2 0 0 0 0 0 0 0 0 1 0 0 42 12 1 0 0 0 0 16 6 0 0 0 0
2830 3212 2892 2563 2402 2321 2217 2086 1938 1786 1569 1238 1409 1416 1332 958 880 776 711 622 518 473 482 417 412 600 2179 1652 1262 1316 1378 1482 1144 1193 1352 1399 1313 1029 936 764 632 227 190 119 79 0 0 0 0 0 35 1 0 0 0 0 0 1 2 0 0 0 0 0 0 0 0 0 0 0 0 0 0 0 1 0 0 0 0 0 0 0 0 0 0
2806 2599 2531 2464 2358 2237 2078 1894 1832 1738 1650 1543 1460 1291 1266 1214 1046 910 747 607 564 503 354 437 738 1850 1836 1930 1621 1545 1542 1248 1255 1126 1214 913 641 911 681 617 308 394 231 74 36 1015 19 0 0 0 0 0 0 0 0 0 0 0 0 0 1 8 6 3 0 0 0 0 7 2 0 0 2 2 0 0 0 0 0 0 0 0 0 7 1
2652 2287 2220 2243 2215 2042 1837 1693 1662 1629 1586 1475 1337 1261 1161 1093 948 796 656 562 438 353 367 499 1530 1974 1791 1652 1735 1580 1607 1282 1310 1236 929 545 613 732 736 478 272 171 133 346 374 335 387 465 380 204 159 113 14 0 33 0 0 0 0 1 17 57 82 151 77 36 38 51 53 20 0 0 0 0 0 0 0 0 0 0 0 56 106 105 107
Wind_Speed
6 7 9 9 9 9 12 13 12 13 13 14 12 10 10 10 10 10 10 11 10 11 10 10 11 12 12 13 13 13 14 13 13 13 14 17 16 18 23 22 20 19 18 16 13 14 14 14 13 13 14 13 14 14 14 15 15 15 15 14 14 13 12 11 10 9 9 9 8 7 8 8 8 8 8 8 8 8 9 9 9 9 8 8 8
7 8 9 9 10 10 10 11 11 10 13 12 9 11 10 11 11 10 10 9 10 12 9 9 10 10 14 12 12 13 13 13 14 15 13 16 17 17 24 22 22 20 20 19 18 15 15 15 14 15 16 15 14 12 12 7 13 16 18 19 14 12 11 11 10 9 8 9 8 8 7 7 7 7 7 8 8 8 8 9 10 10 9 9 8
7 9 9 8 10 9 8 9 10 8 8 9 8 10 10 10 9 10 10 9 11 10 11 11 10 12 9 10 11 12 12 11 8 11 11 14 13 15 19 23 20 19 18 20 19 16 15 16 17 17 16 15 18 16 13 7 7 14 21 25 18 11 8 9 10 9 8 8 8 7 7 7 6 6 6 7 8 8 8 9 10 10 11 10 9
6 7 9 10 9 9 10 10 9 8 9 10 9 12 12 10 10 11 12 13 12 13 13 13 12 9 7 8 10 9 7 5 6 6 nan 9 13 16 13 14 18 18 18 18 17 17 15 17 18 19 18 18 20 22 16 16 15 19 22 26 20 8 6 7 9 9 8 7 7 7 6 6 5 5 5 6 7 7 8 8 8 9 10 11 10
9 9 11 12 11 12 12 10 9 11 12 12 12 11 10 10 10 12 13 13 15 15 11 8 nan 7 6 nan 5 5 6 6 8 7 5 5 6 11 15 14 15 16 17 16 17 16 15 16 18 19 21 21 22 23 21 20 21 20 18 21 18 7 4 6 8 9 9 8 8 7 7 6 5 5 5 5 5 6 6 6 6 7 8 9 10
8 10 9 11 12 12 9 10 10 11 12 11 11 9 8 10 11 12 14 15 14 9 nan 10 9 9 8 6 6 6 7 6 5 6 6 6 6 5 8 13 12 12 12 15 16 15 16 16 17 18 20 21 23 23 22 18 15 12 11 14 16 9 7 12 13 11 10 10 9 9 7 6 6 5 5 5 5 5 5 6 6 6 6 7 8
8 9 10 10 11 9 11 10 10 9 10 12 9 7 10 12 14 14 14 11 8 nan 11 10 10 10 11 10 7 7 7 7 7 7 7 9 10 7 10 6 8 14 12 12 13 16 16 16 16 17 18 20 22 22 21 18 13 12 14 14 15 12 8 8 11 13 15 14 10 10 9 7 6 6 5 5 5 5 5 5 6 6 6 6 7
7 10 10 10 11 11 11 11 10 8 7 6 8 11 13 13 14 13 10 9 9 10 11 11 10 9 11 11 12 11 10 9 8 9 9 9 7 9 11 12 8 6 16 14 13 13 18 17 16 16 17 18 19 20 20 20 17 17 17 15 13 13 11 9 8 8 11 14 14 9 8 7 6 6 6 5 4 3 3 3 4 5 5 6 7
10 10 11 11 10 11 11 12 11 10 10 10 10 12 14 15 16 12 10 11 9 8 9 11 10 11 10 12 14 13 10 11 9 8 10 10 10 10 10 12 10 9 9 14 15 14 16 18 17 16 16 16 16 16 18 20 18 17 16 16 16 14 12 11 10 8 5 8 12 11 8 7 7 6 5 5 4 4 4 2 2 3 3 4 6
11 12 11 11 11 10 12 14 15 15 13 12 13 15 16 11 13 13 14 13 11 10 11 10 10 10 11 9 13 12 9 9 10 11 11 11 13 11 12 9 8 8 9 12 18 15 14 16 17 16 15 16 16 15 15 18 16 16 16 14 15 14 13 12 11 10 8 5 4 8 8 9 9 8 8 7 5 4 4 3 2 2 2 2 3
11 10 11 12 12 14 14 14 15 16 17 16 18 17 17 17 16 16 17 15 14 14 14 13 11 11 nan 10 13 14 13 10 12 11 10 12 11 11 14 12 10 9 11 10 15 17 15 15 14 12 11 13 15 14 15 16 15 14 13 14 14 14 13 12 11 11 10 9 5 2 6 8 11 11 10 10 8 8 7 5 3 3 2 2 2
11 10 11 11 13 16 17 16 17 18 19 18 18 18 17 18 18 18 16 16 15 17 15 15 13 11 11 12 14 16 16 14 12 12 15 16 13 12 13 12 12 12 14 11 14 15 15 13 14 13 11 13 15 14 15 15 14 13 12 13 14 14 14 13 13 13 12 12 11 7 3 3 6 9 11 11 11 10 9 8 6 4 2 2 2
12 12 12 13 14 16 19 19 20 21 20 17 18 19 20 20 21 21 19 17 17 15 17 nan 15 12 11 15 15 16 16 nan 13 13 14 19 17 16 15 15 12 13 14 13 18 17 19 13 13 14 15 13 13 13 13 13 12 10 10 10 11 12 12 13 13 13 13 13 12 11 9 7 5 6 9 11 12 12 11 10 8 7 5 4 3
13 14 13 14 17 18 21 21 21 21 20 18 20 20 19 18 20 20 19 18 19 nan 17 16 15 15 nan 14 14 17 13 14 15 14 nan nan 21 19 nan nan nan nan 11 14 16 18 19 17 14 13 14 14 13 13 12 12 10 10 8 9 9 10 12 12 11 10 10 10 10 11 11 11 10 9 8 8 10 12 13 12 11 9 8 5 4
15 17 17 18 17 20 20 21 19 20 20 18 17 20 20 17 21 19 18 17 19 19 21 17 nan 14 13 14 15 19 13 14 14 12 nan nan nan nan nan nan nan 12 12 13 15 16 15 16 17 15 14 14 13 13 12 12 12 12 10 9 7 6 7 10 10 10 9 9 9 8 8 9 9 10 10 9 9 11 12 13 13 12 10 9 7
17 18 18 22 21 20 19 21 17 18 18 15 18 20 18 20 18 19 20 nan nan 20 19 21 nan 17 15 16 14 16 16 15 14 15 nan nan nan nan nan nan nan 14 nan nan 14 18 nan 14 14 14 18 15 14 14 13 13 16 16 15 14 15 13 12 12 12 13 12 10 9 9 8 7 8 9 9 9 9 9 10 11 14 14 12 10 9
16 12 19 20 19 18 17 20 19 18 18 17 19 18 19 22 19 21 19 17 nan 16 20 21 21 19 17 16 17 19 16 17 nan 15 15 nan nan nan 25 nan nan nan nan nan 12 19 nan nan 14 13 13 17 15 15 14 15 15 16 16 18 17 16 15 13 13 14 17 19 19 19 19 17 14 11 9 7 8 8 8 9 10 13 13 14 12
19 15 18 18 18 17 16 19 19 18 18 17 17 18 18 17 23 21 21 21 18 16 19 19 20 20 20 17 20 16 19 16 18 18 16 18 22 nan nan nan nan nan 20 nan 15 18 nan nan nan nan nan nan 14 14 15 14 14 15 17 nan nan nan nan nan 14 14 16 18 19 18 17 17 17 16 16 16 13 10 8 8 9 10 11 13 14
17 17 16 18 17 16 16 19 19 21 19 19 17 18 22 19 24 21 21 23 22 18 18 21 21 18 19 nan nan 20 nan 19 20 18 20 17 20 nan nan nan nan nan nan nan nan nan nan nan nan nan nan nan nan 14 nan nan nan nan nan nan nan nan nan nan nan nan nan nan nan nan nan 16 16 16 16 15 14 15 15 15 13 11 10 11 12
16 18 15 18 17 17 19 18 19 20 21 21 19 18 22 23 22 24 22 21 21 20 21 18 21 21 20 18 20 21 nan nan 23 21 22 20 19 18 nan nan nan nan nan nan nan nan nan nan nan 14 nan nan 14 15 nan nan nan nan nan nan nan nan nan nan nan nan nan nan nan nan nan nan nan nan nan 16 15 15 15 16 16 17 16 13 12
14 18 17 19 20 20 20 19 19 20 21 21 21 23 25 25 25 25 24 24 20 23 22 21 23 24 20 22 19 18 19 21 nan 22 22 nan 21 nan 19 nan nan nan nan nan nan nan nan nan nan nan 13 nan nan nan nan 18 18 nan nan nan nan nan nan nan nan nan nan nan nan nan nan nan nan nan nan nan nan nan 16 17 17 17 18 18 16
14 18 18 19 21 21 20 20 19 21 21 21 21 26 25 26 26 25 25 27 25 26 24 26 26 23 25 24 23 20 20 20 21 nan 23 nan nan nan nan nan 24 nan 22 nan nan nan nan nan nan nan nan 19 19 nan nan nan nan nan nan nan nan nan nan nan nan nan nan nan nan nan nan nan nan nan nan nan nan nan nan nan nan 18 18 18 19
16 16 20 20 21 21 22 22 21 22 21 20 24 26 26 25 27 26 27 26 29 27 27 28 27 27 26 27 24 23 23 24 22 23 nan 24 24 nan nan nan nan nan 22 27 26 nan nan nan nan nan nan nan nan nan nan 19 nan nan nan nan nan nan nan nan nan nan nan nan nan nan nan nan nan nan nan nan nan nan nan nan nan nan nan nan nan
16 18 19 21 22 22 22 22 26 26 25 20 24 25 28 29 29 30 29 28 27 27 27 26 29 28 26 28 27 25 27 nan nan 26 nan 26 nan nan nan nan 22 nan 25 24 26 25 25 nan nan nan 24 nan nan 22 22 nan nan nan nan nan nan nan nan nan nan nan nan nan nan nan nan nan nan nan nan nan nan nan nan nan nan nan nan nan nan
17 20 20 22 25 23 22 25 27 28 26 24 22 26 29 30 34 33 31 32 28 29 28 25 25 25 25 nan nan nan 31 28 nan nan nan 28 28 26 nan nan nan 23 23 25 25 27 25 24 23 nan 26 27 nan nan nan 22 nan 22 nan 23 nan 23 23 24 nan nan nan nan nan nan nan nan nan nan nan nan nan nan nan nan nan nan nan nan nan
20 18 22 24 27 25 23 27 28 27 28 26 24 28 29 33 36 35 34 33 33 32 31 27 25 26 26 nan nan nan nan nan nan nan nan nan 26 26 26 24 24 22 24 25 26 26 26 nan 21 24 nan 26 26 nan 24 nan nan 26 27 nan 25 nan 25 nan nan nan nan nan nan nan nan nan nan nan nan nan nan nan nan nan nan nan nan nan nan
22 21 20 24 28 25 27 27 29 28 28 28 29 30 32 31 36 36 35 36 33 33 34 29 29 30 30 28 27 nan 28 27 nan nan nan nan 29 27 27 25 23 23 23 26 27 nan nan nan 27 27 nan 26 26 26 25 nan nan 28 28 nan nan 27 nan nan nan nan nan nan nan nan nan nan nan nan nan nan nan nan nan nan nan nan nan nan nan
22 24 21 24 27 28 28 28 30 30 30 30 30 32 32 33 35 36 35 38 35 35 32 29 28 31 30 26 24 21 23 nan 28 28 30 31 30 29 27 27 26 23 24 24 27 28 nan 25 27 28 30 29 26 24 26 25 nan 29 29 nan nan nan nan nan nan nan nan nan nan nan nan nan nan nan nan nan nan nan nan nan nan nan nan nan nan
22 24 25 25 28 30 31 31 30 29 30 30 31 31 33 34 35 35 35 35 36 35 32 27 26 28 28 23 23 23 22 25 27 28 29 29 29 29 29 27 27 26 24 24 25 27 28 nan nan 28 30 32 28 26 27 28 28 nan 29 29 28 29 29 nan nan nan nan nan nan nan nan nan nan nan nan nan nan nan nan nan nan nan nan nan nan
23 24 26 28 28 31 32 33 31 31 31 32 32 32 34 35 36 37 35 34 36 35 33 29 27 26 25 23 27 25 26 26 26 25 27 28 29 29 28 27 27 26 25 23 23 27 26 27 nan 28 30 30 30 29 30 30 31 31 30 30 30 30 28 nan nan nan nan nan nan nan nan nan nan nan nan nan nan nan nan nan nan nan nan nan nan
24 25 27 28 29 30 31 33 33 33 33 33 33 33 35 36 37 38 36 34 33 36 34 33 31 30 29 27 26 25 26 26 25 25 27 28 29 29 28 27 27 27 25 24 21 25 27 25 27 27 29 30 29 29 30 30 30 30 30 31 31 31 31 31 30 30 nan nan nan nan nan nan nan nan nan nan nan nan nan nan nan nan nan nan nan
24 26 27 28 30 32 32 34 34 35 35 35 36 36 35 37 38 37 36 34 33 35 37 36 35 34 33 31 30 28 27 28 29 28 26 27 28 28 28 28 28 29 29 27 24 21 26 25 25 27 26 24 28 29 nan 27 29 33 32 33 34 34 35 37 34 34 33 32 36 nan nan nan nan nan nan nan nan nan nan nan nan nan nan nan nan
25 26 27 28 30 31 33 33 34 35 37 37 39 38 36 36 37 36 33 33 33 35 39 40 38 37 36 35 33 30 29 30 32 30 27 28 29 28 28 29 29 31 30 28 23 20 24 27 27 27 24 24 25 29 29 31 32 36 39 40 41 40 41 41 40 38 37 38 38 39 41 nan nan nan nan nan nan nan nan nan nan nan nan nan nan
25 27 29 29 30 32 33 33 34 36 37 38 40 39 37 36 36 33 29 30 33 36 39 41 42 39 38 37 35 31 29 29 30 30 28 28 30 30 30 30 30 29 29 25 22 23 22 29 29 28 27 27 27 33 34 36 38 41 43 45 48 49 48 47 46 44 41 39 nan nan nan nan nan nan nan nan nan nan nan nan nan nan nan nan nan
24 26 29 31 33 34 34 35 35 37 38 38 37 38 38 37 35 31 26 27 31 35 39 42 43 42 39 37 35 32 30 30 30 30 29 30 32 32 31 31 29 28 27 26 25 24 23 25 29 28 30 31 32 34 36 39 42 43 44 47 48 48 49 49 48 47 44 nan nan nan nan nan nan nan nan nan nan nan nan nan nan nan nan nan nan
25 26 30 32 33 35 36 37 38 38 39 38 37 36 38 37 34 30 28 28 31 36 42 44 44 43 41 38 35 32 30 29 30 31 31 31 33 34 33 32 30 29 28 29 30 29 28 25 27 28 30 30 33 37 39 41 42 44 46 45 46 46 48 51 51 50 49 nan nan nan nan nan nan nan nan nan nan nan nan nan nan nan nan nan nan
25 28 30 33 34 37 39 41 41 41 42 41 38 37 37 35 32 31 32 36 38 40 43 45 45 44 41 38 36 34 31 30 30 31 32 32 34 34 33 31 30 30 30 31 31 31 30 28 28 31 33 34 36 38 42 41 41 41 42 42 43 46 50 51 51 51 nan nan nan nan nan nan nan nan nan nan nan nan nan nan nan nan nan nan nan
27 29 32 34 36 39 41 43 45 45 45 45 41 38 37 36 33 32 34 36 38 38 39 41 44 44 40 38 36 33 31 32 33 33 33 33 35 34 32 31 30 30 30 31 32 33 33 32 31 30 34 34 36 39 41 41 38 37 40 43 46 50 51 51 51 50 49 49 50 49 46 nan nan nan nan nan nan nan nan nan nan nan nan nan nan
29 30 32 35 36 39 42 45 47 47 48 48 44 39 37 37 36 34 34 35 35 36 36 38 42 43 39 37 36 35 34 34 35 35 35 35 35 33 33 33 32 31 31 32 33 33 33 32 33 35 35 37 38 36 39 40 39 40 41 44 47 50 51 51 50 50 50 48 46 42 41 nan nan nan nan nan nan nan nan nan nan nan nan nan nan
29 32 34 36 37 39 43 46 47 48 48 47 45 41 38 39 38 36 35 35 35 35 35 37 41 42 40 38 37 36 36 36 36 36 37 35 34 33 34 34 33 32 32 33 33 34 34 33 33 33 36 36 37 39 40 40 41 44 50 52 52 52 50 51 51 49 48 47 45 43 41 40 nan 38 nan nan nan nan nan nan nan nan nan nan nan
28 31 34 36 38 41 45 47 48 49 48 47 44 42 40 39 39 37 37 36 36 35 35 37 40 40 38 37 36 37 38 39 38 38 38 37 35 34 35 36 35 35 34 34 33 33 34 34 33 36 37 39 42 42 42 44 45 46 52 55 54 52 49 47 47 48 48 46 43 42 41 41 40 41 42 42 41 37 36 35 nan nan nan nan nan
31 33 36 39 42 45 47 49 50 49 47 45 45 49 43 38 38 37 37 38 37 36 37 38 40 40 38 37 36 31 30 35 39 38 37 37 36 35 35 36 37 36 36 35 34 34 35 35 34 36 nan nan nan 45 46 47 48 49 52 54 51 49 48 46 46 47 46 44 42 41 41 41 39 40 42 40 38 35 35 35 35 32 31 30 27
35 36 38 43 46 48 49 50 52 50 48 45 51 53 48 42 37 36 38 38 37 37 37 39 40 40 39 40 37 31 31 32 36 37 37 39 39 38 37 37 38 40 39 38 37 38 38 38 38 40 nan nan nan 46 47 47 49 52 52 50 46 45 45 44 42 44 45 42 42 41 39 40 39 38 40 38 35 34 nan 33 29 27 nan nan nan
38 38 40 43 47 50 51 52 52 50 47 47 51 49 45 42 38 37 37 37 36 36 37 39 41 42 42 37 36 34 36 38 40 38 41 44 42 38 37 37 38 41 42 41 39 39 41 41 43 45 45 45 45 47 47 48 49 48 46 45 44 44 44 44 42 40 44 43 40 39 35 37 37 nan nan nan nan nan 33 nan nan nan nan nan nan
38 40 42 45 47 51 54 56 54 50 44 48 50 48 45 43 41 39 37 36 34 36 38 42 43 41 40 36 32 33 37 35 37 41 39 38 37 37 38 39 38 39 40 39 39 40 41 44 46 46 47 47 47 48 49 47 47 44 43 43 44 44 43 41 41 nan 43 44 nan nan nan nan nan nan nan nan nan nan 32 28 nan nan nan nan nan
39 41 43 46 47 50 53 56 55 51 45 46 49 49 46 44 42 39 36 35 34 36 39 42 42 39 37 36 32 37 42 42 41 37 36 35 38 40 41 41 41 40 40 39 41 41 nan 47 49 48 48 48 46 47 47 47 46 44 44 nan nan nan nan nan nan nan nan nan nan nan nan nan nan nan nan nan nan nan 31 27 23 25 nan nan nan
41 42 45 47 48 49 52 56 56 53 46 48 47 49 48 44 43 38 33 33 34 36 39 41 38 36 33 35 41 42 39 42 42 40 38 39 41 41 41 41 40 40 39 37 41 47 51 nan 52 48 46 46 46 46 48 nan nan nan nan nan nan nan nan nan nan nan nan nan nan nan nan nan nan nan 33 33 34 34 nan nan nan nan nan nan nan
42 45 47 48 50 52 53 55 55 52 47 51 48 49 49 46 45 37 33 32 34 36 37 38 35 31 33 39 41 45 39 39 39 39 40 41 43 44 44 43 42 41 39 39 nan nan 53 57 54 50 49 48 52 51 nan nan nan nan nan nan nan nan nan nan nan nan nan nan nan nan nan nan nan nan nan nan nan nan nan nan nan nan nan nan nan
44 48 51 51 52 55 55 54 54 51 48 51 51 51 51 50 45 38 34 32 33 36 35 33 33 30 35 40 43 45 45 45 42 39 40 41 42 44 45 44 43 42 43 45 nan nan nan nan nan nan nan nan nan nan nan nan nan nan nan nan nan nan nan nan nan nan nan nan nan nan nan nan nan nan nan nan nan nan nan nan nan nan nan nan nan
46 50 53 53 54 54 56 55 54 51 47 47 50 52 52 50 46 40 36 34 34 35 33 31 31 34 39 43 45 46 48 46 48 49 47 45 44 44 44 42 42 43 46 nan nan 52 nan nan nan nan nan nan nan nan nan nan nan nan nan nan nan nan nan nan nan nan nan nan nan nan nan nan nan nan nan nan nan nan nan nan nan nan nan nan nan
47 51 54 54 53 55 56 55 54 53 48 47 49 51 51 48 43 37 36 35 34 33 33 32 35 39 40 41 45 46 48 50 56 51 45 45 46 45 44 44 43 45 49 52 53 51 52 49 48 47 46 45 nan nan nan nan nan nan nan nan nan nan nan 39 nan nan nan nan nan nan nan nan nan nan nan nan nan nan nan nan nan nan 33 32 32
Wind_Direction
29 38 45 51 50 41 46 53 51 50 54 56 54 58 52 55 62 68 68 72 78 70 56 49 37 30 31 29 24 33 31 24 17 19 13 358 3 8 6 4 4 3 359 1 1 355 349 338 331 325 319 320 312 307 307 302 305 306 306 298 293 289 295 298 301 308 314 319 325 335 344 347 348 348 350 352 356 357 357 2 9 15 18 19 34
17 33 36 38 45 46 52 54 52 54 56 56 57 54 48 41 48 51 58 61 58 57 52 47 51 40 19 18 21 30 30 23 12 18 15 1 357 4 4 4 5 7 3 3 8 8 355 346 336 331 328 324 307 284 263 284 310 316 319 314 307 286 285 294 297 305 313 318 322 330 338 344 347 349 349 352 355 359 2 2 5 12 19 23 33
14 28 35 33 46 44 45 56 52 53 64 65 52 58 55 51 45 45 51 45 48 47 38 37 35 33 19 8 19 22 24 21 17 16 10 5 348 354 7 3 2 3 3 3 6 11 4 351 344 337 332 326 311 295 277 264 322 341 335 333 324 281 261 286 296 305 309 311 314 319 325 333 342 348 352 352 355 1 6 8 8 12 15 20 26
16 23 32 38 37 40 40 36 35 31 54 57 43 46 43 43 36 33 35 35 35 36 25 25 21 19 3 4 19 15 358 348 7 16 nan 358 340 351 349 356 0 1 1 359 2 4 4 355 349 347 342 336 324 310 326 342 4 354 348 343 336 296 249 272 285 292 295 297 300 301 309 316 329 340 350 356 359 3 7 12 14 14 18 20 21
16 21 27 32 30 37 33 30 19 23 33 41 41 37 35 35 20 29 30 29 31 29 12 356 nan 348 342 nan 334 336 342 343 10 359 309 1 340 328 343 350 351 1 358 354 357 358 355 353 352 351 350 350 342 337 348 359 3 358 351 351 350 330 263 276 283 287 289 292 297 294 297 303 316 331 345 355 2 7 9 13 16 20 24 24 23
13 24 31 33 28 31 15 21 18 18 19 20 28 26 22 31 27 27 31 25 23 358 nan 1 337 324 331 325 337 322 310 342 337 328 341 328 323 333 326 333 340 339 347 355 353 354 350 350 351 352 352 355 360 2 1 9 9 351 345 360 3 351 297 269 265 267 285 296 295 295 298 304 312 321 333 347 354 3 9 14 19 22 25 28 30
9 21 21 34 27 14 15 3 6 10 18 7 8 2 16 21 17 23 22 6 349 nan 355 330 326 335 316 306 320 321 317 334 337 331 349 327 326 338 318 300 324 331 335 334 352 353 348 349 349 347 348 356 8 12 11 12 4 359 5 13 13 5 344 320 297 277 259 254 271 284 290 301 310 313 325 338 345 352 2 7 12 17 21 26 32
9 16 24 23 22 8 3 356 350 352 12 337 352 1 12 14 13 11 344 341 356 6 333 314 315 318 308 324 328 327 331 332 340 329 322 312 317 328 314 311 309 329 330 333 332 343 347 343 349 346 344 353 6 11 15 14 12 12 12 9 11 13 3 348 337 309 270 251 244 252 273 283 294 306 311 314 319 325 344 1 11 12 16 19 24
10 24 19 17 12 358 349 345 330 335 342 336 352 5 6 3 0 336 338 325 344 336 308 313 319 311 333 328 318 318 335 327 325 311 309 330 320 312 297 307 318 355 323 330 322 323 335 338 338 343 343 348 357 4 15 10 14 20 17 17 20 18 9 357 357 352 324 251 235 235 249 261 263 268 279 288 295 291 300 337 10 16 21 22 19
3 23 9 10 3 341 345 335 332 334 334 330 353 355 354 341 322 316 314 326 324 324 310 308 313 323 314 314 308 305 303 318 313 322 329 325 320 308 307 310 320 280 304 292 313 312 315 322 329 340 344 343 345 353 3 360 16 22 18 17 23 28 27 22 17 16 9 349 241 230 245 254 256 259 260 260 266 273 286 300 310 340 17 34 35
359 5 2 5 354 331 333 328 321 324 325 342 344 350 326 319 319 319 316 312 325 323 326 323 320 312 nan 312 305 316 313 317 318 325 333 318 311 311 302 303 295 297 273 281 298 304 304 310 316 315 322 341 341 347 350 358 4 17 19 15 18 24 30 34 33 24 21 24 23 248 237 255 254 251 256 257 258 257 257 264 275 302 334 357 30
345 356 355 356 331 326 322 324 326 325 333 338 331 314 311 310 311 305 308 314 321 314 317 313 313 318 323 324 326 319 321 321 323 334 332 316 320 314 303 297 292 288 291 296 276 281 289 298 308 307 312 330 338 343 346 352 355 1 10 13 14 14 18 25 29 28 25 21 21 15 354 279 263 259 258 256 254 254 255 258 264 273 287 300 318
336 347 343 340 313 314 319 324 326 329 324 323 308 307 309 313 312 314 310 315 307 307 307 nan 307 311 333 322 316 320 325 nan 326 324 330 317 319 313 309 298 294 290 291 288 294 294 290 299 294 299 303 306 319 334 341 336 349 357 4 10 9 4 6 15 22 20 18 17 17 13 8 360 335 294 267 261 259 256 256 258 263 267 272 275 276
334 331 331 304 307 319 318 321 324 317 309 306 306 311 306 306 304 298 310 308 305 nan 295 305 309 316 nan 305 307 310 307 314 315 340 nan nan 315 306 nan nan nan nan 274 294 284 296 300 293 293 291 297 299 303 303 306 311 319 335 349 352 359 0 356 356 1 6 4 3 3 2 2 358 354 348 324 291 269 261 259 258 257 256 254 245 250
328 322 312 302 317 312 314 313 311 303 305 309 309 297 301 301 299 306 296 307 306 306 307 309 nan 297 302 304 310 311 303 300 311 303 nan nan nan nan nan nan nan 275 265 268 281 279 278 292 301 306 297 298 301 300 299 306 305 308 310 307 310 327 336 331 329 338 343 341 344 347 348 349 349 351 349 339 315 287 268 256 253 252 252 248 243
320 315 304 314 312 312 313 304 307 296 298 295 298 299 300 298 302 299 299 nan nan 309 309 301 nan 292 293 295 297 296 296 297 303 297 nan nan nan nan nan nan nan 282 nan nan 272 278 nan 288 290 292 306 305 299 294 293 286 294 296 293 288 274 268 271 274 279 289 291 292 290 299 311 329 341 343 351 350 343 327 303 278 260 255 256 258 257
284 310 307 308 310 310 309 303 303 306 304 308 304 306 308 307 306 301 304 298 nan 299 305 302 301 296 295 296 295 293 291 284 nan 294 288 nan nan nan 306 nan nan nan nan nan 280 285 nan nan 291 294 290 304 302 296 294 291 288 289 285 282 276 271 269 268 269 275 276 275 272 271 271 274 280 290 298 315 330 335 326 308 286 270 262 260 257
313 317 306 309 310 313 311 307 305 302 306 302 296 298 302 311 307 310 306 303 293 292 298 295 299 300 300 306 304 298 292 293 292 292 292 291 296 nan nan nan nan nan 309 nan 294 291 nan nan nan nan nan nan 295 297 295 293 285 276 280 nan nan nan nan nan 271 269 271 274 276 275 273 274 275 273 272 272 276 285 298 308 308 294 277 264 260
319 313 314 310 314 315 314 309 312 311 315 307 316 318 320 316 308 305 299 296 303 300 291 301 299 297 304 nan nan 287 nan 291 291 293 290 291 293 nan nan nan nan nan nan nan nan nan nan nan nan nan nan nan nan 297 nan nan nan nan nan nan nan nan nan nan nan nan nan nan nan nan nan 274 274 273 274 275 275 273 271 270 274 283 287 280 269
310 309 318 309 316 318 311 316 316 317 311 310 321 324 311 311 306 300 301 303 302 300 296 295 289 293 284 287 287 293 nan nan 289 289 294 296 293 294 nan nan nan nan nan nan nan nan nan nan nan 301 nan nan 308 306 nan nan nan nan nan nan nan nan nan nan nan nan nan nan nan nan nan nan nan nan nan 278 276 274 273 272 269 266 270 277 279
310 310 315 316 316 316 318 323 324 313 314 317 322 317 309 306 306 306 309 308 304 297 298 296 296 292 292 285 286 290 293 291 nan 296 291 nan 291 nan 294 nan nan nan nan nan nan nan nan nan nan nan 300 nan nan nan nan 297 290 nan nan nan nan nan nan nan nan nan nan nan nan nan nan nan nan nan nan nan nan nan 275 272 270 268 267 267 267
308 308 313 316 315 322 325 332 330 319 317 322 321 307 313 314 315 315 314 310 308 307 305 301 294 293 294 297 292 289 286 288 289 nan 286 nan nan nan nan nan 293 nan 291 nan nan nan nan nan nan nan nan 297 301 nan nan nan nan nan nan nan nan nan nan nan nan nan nan nan nan nan nan nan nan nan nan nan nan nan nan nan nan 272 269 265 262
311 311 315 318 322 325 331 336 323 312 317 321 318 318 320 321 320 323 318 315 312 311 307 302 301 298 297 296 297 296 294 290 290 292 nan 288 285 nan nan nan nan nan 286 292 288 nan nan nan nan nan nan nan nan nan nan 298 nan nan nan nan nan nan nan nan nan nan nan nan nan nan nan nan nan nan nan nan nan nan nan nan nan nan nan nan nan
316 315 320 327 321 329 333 329 316 316 321 325 322 326 324 325 324 321 322 318 314 309 308 306 303 301 297 298 299 294 290 nan nan 290 nan 287 nan nan nan nan 290 nan 295 294 294 289 286 nan nan nan 299 nan nan 293 292 nan nan nan nan nan nan nan nan nan nan nan nan nan nan nan nan nan nan nan nan nan nan nan nan nan nan nan nan nan nan
318 318 323 327 321 331 336 320 317 319 321 324 324 326 319 325 321 323 324 321 319 315 313 309 306 304 300 nan nan nan 287 288 nan nan nan 286 290 290 nan nan nan 286 287 291 294 291 289 288 290 nan 292 298 nan nan nan 298 nan 314 nan 319 nan 328 329 327 nan nan nan nan nan nan nan nan nan nan nan nan nan nan nan nan nan nan nan nan nan
317 322 325 327 324 333 329 318 320 319 320 323 324 320 320 326 325 326 327 323 322 320 316 317 310 300 293 nan nan nan nan nan nan nan nan nan 291 287 284 286 288 290 295 293 291 288 290 nan 292 292 nan 291 291 nan 297 nan nan 320 328 nan 328 nan 335 nan nan nan nan nan nan nan nan nan nan nan nan nan nan nan nan nan nan nan nan nan nan
319 324 326 325 327 331 325 324 322 323 323 325 328 324 325 327 325 327 326 324 325 321 315 313 310 309 302 294 286 nan 280 276 nan nan nan nan 280 284 285 286 289 290 291 293 293 nan nan nan 301 295 nan 294 295 296 300 nan nan 316 324 nan nan 334 nan nan nan nan nan nan nan nan nan nan nan nan nan nan nan nan nan nan nan nan nan nan nan
320 322 327 327 327 329 327 327 325 325 327 327 327 326 326 327 326 327 325 322 326 325 319 310 307 307 308 307 309 304 288 nan 287 283 279 280 283 286 290 290 289 289 290 291 290 291 nan 291 290 291 295 296 297 301 304 308 nan 314 324 nan nan nan nan nan nan nan nan nan nan nan nan nan nan nan nan nan nan nan nan nan nan nan nan nan nan
320 323 328 328 327 328 329 329 328 326 326 326 326 324 325 326 326 325 325 322 323 326 324 317 305 310 314 318 316 315 307 298 296 295 292 288 285 287 289 290 289 291 291 293 294 291 290 nan nan 295 297 294 299 305 307 309 313 nan 319 323 323 324 328 nan nan nan nan nan nan nan nan nan nan nan nan nan nan nan nan nan nan nan nan nan nan
321 324 326 328 326 328 328 329 327 325 325 327 328 326 324 325 324 325 323 319 320 326 328 321 311 304 308 317 321 321 320 316 315 313 303 296 296 296 294 295 293 295 293 292 291 289 287 292 nan 297 297 297 302 308 312 316 323 325 321 323 324 324 327 nan nan nan nan nan nan nan nan nan nan nan nan nan nan nan nan nan nan nan nan nan nan
321 325 326 328 328 330 329 329 326 326 327 328 329 327 324 322 321 321 319 317 319 325 326 323 316 310 311 320 324 321 317 318 312 305 300 302 304 302 299 297 296 294 294 292 290 291 292 296 301 297 295 301 306 309 312 318 324 327 324 324 323 326 329 323 322 318 nan nan nan nan nan nan nan nan nan nan nan nan nan nan nan nan nan nan nan
325 328 328 331 332 333 331 331 329 328 328 328 328 327 324 321 318 319 317 314 317 322 323 320 319 318 318 319 318 313 313 316 317 314 308 304 304 303 300 298 296 296 295 294 295 293 293 294 297 300 303 304 308 314 nan 321 318 322 318 319 321 325 320 317 322 322 320 319 318 nan nan nan nan nan nan nan nan nan nan nan nan nan nan nan nan
328 331 330 333 335 334 334 333 331 329 328 328 327 325 324 321 320 321 314 309 311 317 318 318 319 321 320 317 315 311 307 313 317 314 312 309 306 306 302 298 296 295 297 296 294 293 295 298 296 294 294 297 305 309 311 314 314 314 317 317 318 318 317 316 315 318 318 315 313 313 314 nan nan nan nan nan nan nan nan nan nan nan nan nan nan
330 333 333 334 335 335 335 334 331 328 326 327 326 324 324 322 324 324 317 307 308 314 316 317 318 318 317 315 315 311 305 306 310 313 311 310 309 306 303 300 300 301 302 301 300 299 301 301 302 298 297 300 304 306 309 309 310 311 314 314 313 314 313 313 313 312 316 314 nan nan nan nan nan nan nan nan nan nan nan nan nan nan nan nan nan
327 331 333 335 336 336 335 332 330 327 325 325 324 323 323 322 323 325 323 312 311 316 319 319 318 318 319 315 314 313 309 308 310 313 311 309 308 308 306 304 304 302 298 297 294 294 295 299 300 299 298 298 299 298 300 303 304 306 308 309 310 310 311 312 312 310 313 nan nan nan nan nan nan nan nan nan nan nan nan nan nan nan nan nan nan
324 326 329 332 332 333 333 330 329 326 324 323 322 321 321 321 318 316 313 307 306 313 317 317 317 319 320 318 317 317 314 312 312 312 312 309 308 310 310 306 305 304 302 298 296 293 290 290 292 291 290 291 295 297 297 298 301 303 304 304 305 308 309 309 309 308 309 nan nan nan nan nan nan nan nan nan nan nan nan nan nan nan nan nan nan
322 322 323 327 329 332 332 330 329 328 325 323 322 319 317 318 318 313 307 304 305 309 312 312 314 317 319 319 318 317 316 314 311 310 309 310 310 311 310 307 306 304 299 297 296 296 296 295 292 291 290 291 292 293 291 291 295 298 300 304 307 310 309 308 308 307 nan nan nan nan nan nan nan nan nan nan nan nan nan nan nan nan nan nan nan
321 323 324 326 329 332 333 330 330 331 326 323 322 318 315 314 314 314 311 310 312 312 312 311 313 313 316 316 314 314 315 313 310 309 308 309 308 309 309 308 304 301 299 299 300 301 301 301 298 295 295 296 295 294 293 294 295 299 303 307 309 310 308 306 305 303 301 300 297 299 304 nan nan nan nan nan nan nan nan nan nan nan nan nan nan
327 327 327 328 329 332 333 331 331 330 326 323 321 316 311 311 311 312 312 312 312 312 312 312 310 310 314 314 310 312 313 310 308 307 306 306 308 308 308 306 305 304 304 304 304 303 303 303 302 304 304 304 303 301 300 301 301 303 306 305 306 307 306 305 303 301 299 297 297 300 301 nan nan nan nan nan nan nan nan nan nan nan nan nan nan
332 331 331 331 331 333 333 331 328 326 324 321 319 315 310 309 309 311 311 310 311 310 309 310 308 309 314 315 312 309 309 306 305 304 304 305 305 305 303 302 303 304 305 306 307 307 307 306 307 308 309 310 309 309 306 303 301 303 306 307 307 305 303 300 299 297 295 295 296 297 299 301 nan 306 nan nan nan nan nan nan nan nan nan nan nan
329 332 332 332 331 332 331 330 328 326 324 321 315 311 307 309 311 311 310 309 309 309 309 309 306 305 310 311 307 305 305 309 310 308 308 307 303 303 303 303 304 305 306 306 307 309 309 309 310 311 312 311 308 306 303 301 301 302 302 303 304 304 301 298 298 298 296 295 296 298 300 300 299 297 296 298 299 302 305 309 nan nan nan nan nan
327 326 327 327 330 329 329 331 329 325 323 319 315 311 311 313 313 308 307 308 309 309 310 308 305 308 310 309 301 299 305 311 313 314 315 313 307 301 299 301 303 305 306 305 307 309 309 309 309 309 nan nan nan 302 299 298 297 297 299 299 299 299 298 298 296 296 297 297 296 298 299 297 296 296 296 296 295 294 290 287 284 282 280 284 288
327 325 325 326 328 327 329 331 331 327 323 320 317 315 321 321 313 308 308 308 309 309 309 305 304 308 307 297 296 310 311 305 308 317 315 309 302 298 298 303 304 305 306 307 307 306 306 306 307 308 nan nan nan 299 297 296 296 295 295 296 296 295 295 293 292 293 296 297 296 296 298 297 295 296 295 293 291 290 nan 285 281 278 nan nan nan
324 324 326 327 326 324 325 330 330 327 324 322 319 316 317 319 313 307 305 305 307 308 306 305 303 301 298 301 307 308 304 302 300 302 300 295 292 296 303 305 306 308 309 307 305 304 304 306 309 309 306 303 300 299 298 297 296 295 296 296 297 297 296 295 294 295 295 294 294 294 298 295 291 nan nan nan nan nan 289 nan nan nan nan nan nan
318 323 324 324 321 322 324 327 329 326 322 314 317 317 317 315 314 308 304 303 306 307 304 299 296 298 301 304 304 300 294 300 300 296 295 292 293 297 298 301 303 306 305 308 311 309 305 308 310 309 307 304 304 302 300 299 298 299 298 298 298 297 295 294 296 nan 298 295 nan nan nan nan nan nan nan nan nan nan 288 286 nan nan nan nan nan
317 320 323 323 319 320 320 323 325 322 317 314 318 316 314 314 313 306 303 306 303 302 300 300 301 302 302 304 304 292 293 295 295 296 294 289 289 294 297 298 300 302 306 313 318 321 nan 313 311 309 306 303 305 304 303 302 300 299 299 nan nan nan nan nan nan nan nan nan nan nan nan nan nan nan nan nan nan nan 288 289 291 282 nan nan nan
312 316 318 319 317 316 317 319 320 319 315 317 316 313 313 314 310 304 304 302 301 300 298 297 300 302 304 299 292 298 298 294 297 301 296 291 289 293 296 297 298 297 297 300 306 308 309 nan 312 312 309 308 308 308 305 nan nan nan nan nan nan nan nan nan nan nan nan nan nan nan nan nan nan nan 294 292 291 289 nan nan nan nan nan nan nan
311 311 313 314 314 311 313 317 318 317 310 315 314 315 313 312 313 310 309 306 304 301 299 299 301 301 301 299 296 292 295 295 297 305 303 292 290 295 300 301 299 297 299 304 nan nan 305 308 310 312 311 309 308 308 nan nan nan nan nan nan nan nan nan nan nan nan nan nan nan nan nan nan nan nan nan nan nan nan nan nan nan nan nan nan nan
309 309 310 311 310 312 315 318 316 315 309 318 318 314 312 312 307 308 311 309 304 302 299 296 299 306 300 296 294 293 295 293 298 304 303 293 292 298 300 300 300 300 299 296 nan nan nan nan nan nan nan nan nan nan nan nan nan nan nan nan nan nan nan nan nan nan nan nan nan nan nan nan nan nan nan nan nan nan nan nan nan nan nan nan nan
309 307 306 307 309 310 314 318 317 311 308 309 312 313 313 312 312 310 310 306 302 299 296 295 297 298 296 302 294 292 292 294 300 303 298 293 293 296 298 300 300 301 301 nan nan 303 nan nan nan nan nan nan nan nan nan nan nan nan nan nan nan nan nan nan nan nan nan nan nan nan nan nan nan nan nan nan nan nan nan nan nan nan nan nan nan
304 303 304 305 307 307 312 315 312 309 308 311 316 315 314 314 311 307 306 302 299 293 290 293 296 296 293 295 299 295 294 294 295 292 294 294 294 297 298 298 301 303 301 297 297 296 298 302 304 307 308 311 nan nan nan nan nan nan nan nan nan nan nan 310 nan nan nan nan nan nan nan nan nan nan nan nan nan nan nan nan nan nan 273 273 273